Date,TemperatureHighF,TemperatureAvgF,TemperatureLowF,DewpointHighF,DewpointAvgF,DewpointLowF,HumidityHigh,HumidityAvg,HumidityLow,PressureMaxIn,PressureMinIn,WindSpeedMaxMPH,WindSpeedAvgMPH,GustSpeedMaxMPH,PrecipitationSumIn
2013-1-1,78.0,64.5,54.0,66.5,59.9,52.1,94,82,62,29.95,29.95,13,0,18,0.00
2013-1-2,77.0,65.2,57.0,71.5,63.1,55.3,100,91,77,29.95,29.95,10,1,15,0.00
2013-1-3,80.0,68.6,58.0,71.1,65.7,57.1,100,89,63,29.95,29.95,14,0,21,0.00
2013-1-4,72.0,66.8,63.0,71.1,66.2,61.3,100,97,92,29.95,29.95,15,3,17,0.00
2013-1-5,80.0,66.3,61.0,74.1,64.4,61.0,100,92,78,29.95,29.95,10,2,14,0.00
2013-1-6,79.0,70.0,64.0,73.4,68.2,64.0,100,93,73,29.95,29.95,12,1,17,0.00
2013-1-7,73.0,68.2,66.0,69.8,67.2,64.2,100,96,85,29.95,29.95,11,2,12,0.00
2013-1-8,72.0,66.8,66.0,70.8,65.3,64.4,98,93,92,29.95,29.95,11,1,15,0.00
2013-1-9,81.0,73.4,68.0,73.9,70.1,66.4,100,88,71,29.95,29.95,14,2,18,0.00
2013-1-10,82.0,71.8,64.0,71.0,66.6,60.1,100,81,57,29.95,29.95,16,1,19,0.00
2013-1-11,81.0,69.0,62.0,71.8,64.9,59.9,100,84,57,29.95,29.95,11,0,16,0.00
2013-1-12,81.0,74.7,64.0,71.7,68.2,61.7,96,77,65,29.95,29.95,13,0,16,0.00
2013-1-13,80.0,77.0,65.0,71.8,68.7,58.0,86,70,62,29.95,29.95,12,1,13,0.00
2013-1-14,79.0,68.0,60.0,68.6,62.7,56.8,94,80,61,29.95,29.95,15,0,15,0.00
2013-1-15,71.0,64.1,58.0,67.0,58.9,52.3,100,79,65,29.95,29.95,2,0,4,0.00
2013-1-16,82.0,68.6,59.0,69.4,63.6,57.2,99,82,55,29.95,29.95,13,1,21,0.00
2013-1-17,78.0,66.5,61.0,71.7,62.9,52.9,100,85,69,29.95,29.95,16,4,25,0.00
2013-1-18,61.0,57.5,48.0,58.5,51.3,41.1,94,74,66,29.95,29.95,0,0,0,0.00
2013-1-19,73.0,64.4,58.0,67.2,62.6,55.9,100,92,76,29.95,29.95,10,0,12,0.00
2013-1-20,75.0,67.4,64.0,69.6,65.6,62.9,100,93,75,29.95,29.95,8,0,9,0.00
2013-1-21,67.0,66.5,61.0,64.7,64.3,58.2,93,90,90,29.95,29.95,12,1,18,0.00
2013-1-22,68.0,61.2,56.0,58.5,54.4,45.3,93,73,57,29.95,29.95,13,3,18,0.00
2013-1-23,70.0,58.3,51.0,54.8,47.2,41.0,68,59,43,29.95,29.95,8,0,12,0.00
2013-1-24,72.0,57.1,46.0,53.6,47.6,42.2,86,65,36,29.95,29.95,10,0,13,0.00
2013-1-25,75.0,60.0,47.0,59.8,52.4,44.1,90,72,50,29.95,29.95,7,0,11,0.00
2013-1-26,75.0,62.8,54.0,58.6,53.8,49.2,84,68,42,29.95,29.95,0,0,0,0.00
2013-1-27,76.0,61.1,55.0,62.9,54.1,42.7,90,73,50,29.95,29.95,4,0,7,0.00
2013-1-28,80.0,68.9,60.0,68.0,62.3,57.5,93,75,58,29.95,29.95,12,0,16,0.00
2013-1-29,63.0,61.8,61.0,61.8,60.9,57.5,99,96,81,29.95,29.95,16,1,20,0.00
2013-1-30,64.0,63.5,62.0,62.4,59.5,53.8,99,84,63,29.95,29.95,2,0,5,0.00
2013-1-31,64.0,61.6,52.0,63.1,55.6,42.6,98,77,47,29.95,29.95,0,0,0,0.00
2013-2-1,68.0,53.7,41.0,49.3,41.9,34.3,78,57,32,29.95,29.95,12,0,15,0.00
2013-2-2,64.0,47.5,43.0,51.6,38.3,29.5,78,63,44,29.95,29.95,3,0,6,0.00
2013-2-3,71.0,58.3,45.0,55.9,47.9,39.3,87,63,35,29.95,29.95,13,0,19,0.00
2013-2-4,69.0,56.2,50.0,54.5,46.8,30.9,95,67,28,29.95,29.95,0,0,0,0.00
2013-2-5,80.0,57.7,57.0,58.4,51.4,50.5,79,74,73,29.95,29.95,0,0,0,0.00
2013-2-6,80.0,66.8,54.0,68.6,60.3,50.7,88,75,55,29.95,29.95,10,0,18,0.00
2013-2-7,81.0,69.7,59.0,68.4,63.9,56.8,93,78,56,29.95,29.95,19,1,24,0.00
2013-2-8,69.0,69.0,69.0,68.5,62.6,50.9,98,77,43,29.95,29.95,0,0,1,0.00
2013-2-9,77.0,69.9,68.0,65.4,64.0,59.2,82,77,58,29.95,29.95,7,0,9,0.00
2013-2-10,80.0,68.7,62.0,66.3,62.9,58.1,94,78,55,29.95,29.95,7,0,12,0.00
2013-2-11,82.0,68.8,59.0,70.8,63.3,56.5,92,79,58,29.95,29.95,14,1,20,0.00
2013-2-12,82.0,70.1,60.0,73.8,66.3,57.8,98,85,68,29.95,29.95,16,1,24,0.00
2013-2-13,82.0,73.6,67.0,74.4,70.8,59.1,100,89,73,29.95,29.95,22,2,48,0.00
2013-2-14,71.0,62.8,58.0,71.0,60.9,56.0,100,92,71,29.95,29.95,21,3,25,0.00
2013-2-15,67.0,61.4,59.0,64.4,60.9,57.9,100,98,90,29.95,29.95,11,1,15,0.00
2013-2-16,64.0,58.3,52.0,61.0,54.4,45.5,100,83,66,29.95,29.95,24,1,29,0.00
2013-2-17,57.0,48.5,39.0,45.9,35.2,27.3,70,50,35,29.95,29.95,21,0,26,0.00
2013-2-18,69.0,51.2,36.0,54.1,40.9,27.0,74,60,50,29.95,29.95,8,0,11,0.00
2013-2-19,78.0,65.5,50.0,67.4,60.2,46.9,93,80,62,29.95,29.95,7,0,9,0.00
2013-2-20,81.0,65.9,55.0,66.0,60.4,54.0,100,80,50,29.95,29.95,11,0,15,0.00
2013-2-21,81.0,70.4,60.0,70.6,64.9,59.6,100,79,62,29.95,29.95,9,0,15,0.00
2013-2-22,85.0,70.5,60.0,74.5,66.2,58.0,100,84,64,29.95,29.95,14,1,18,0.00
2013-2-23,84.0,73.4,66.0,75.7,70.4,63.7,99,88,70,29.95,29.95,15,1,24,0.00
2013-2-24,85.0,73.9,68.0,74.7,70.5,65.6,100,88,61,29.95,29.95,12,0,16,0.00
2013-2-25,83.0,72.7,64.0,74.4,68.7,62.6,98,85,65,29.95,29.95,14,0,22,0.00
2013-2-26,82.0,73.5,66.0,76.0,70.7,62.2,98,89,77,29.95,29.95,22,3,39,0.00
2013-2-27,75.0,67.3,61.0,66.5,63.4,59.0,97,84,70,29.95,29.95,12,1,13,0.00
2013-2-28,64.0,58.9,58.0,59.2,53.1,46.2,88,76,57,29.95,29.95,2,0,3,0.00
2013-3-1,64.0,59.9,58.0,59.2,54.3,47.3,80,76,67,29.95,29.95,13,0,19,0.00
2013-3-2,58.0,54.5,52.0,48.5,46.5,43.5,69,67,60,29.95,29.95,0,0,0,0.00
2013-3-3,60.0,49.7,41.0,48.5,43.6,36.4,93,74,57,29.95,29.95,15,0,24,0.00
2013-3-4,69.0,51.6,35.0,50.8,42.3,31.0,82,65,35,29.95,29.95,10,0,16,0.00
2013-3-5,74.0,57.8,42.0,62.0,51.6,37.3,91,76,53,29.95,29.95,7,0,16,0.00
2013-3-6,70.0,60.2,49.0,63.2,52.8,42.6,99,73,44,29.95,29.95,18,2,22,0.00
2013-3-7,69.0,52.8,42.0,52.1,43.0,35.4,78,63,37,29.95,29.95,16,0,19,0.00
2013-3-8,77.0,56.6,41.0,56.8,47.5,37.8,88,67,34,29.95,29.95,7,0,9,0.00
2013-3-9,73.0,58.5,51.0,56.6,48.3,37.8,84,62,36,29.95,29.95,0,0,0,0.00
2013-3-10,79.0,63.1,56.0,61.7,53.0,41.8,82,64,44,29.95,29.95,3,0,6,0.00
2013-3-11,80.0,65.5,57.0,66.9,59.3,53.1,90,76,57,29.95,29.95,0,0,1,0.00
2013-3-12,74.0,67.6,58.0,70.8,64.4,52.2,95,87,81,29.95,29.95,19,3,38,0.00
2013-3-13,76.0,60.9,51.0,52.7,49.9,45.4,90,63,31,29.95,29.95,17,2,26,0.00
2013-3-14,72.0,57.0,47.0,47.7,42.1,35.4,85,51,25,29.95,29.95,19,0,26,0.00
2013-3-15,74.0,56.6,42.0,49.7,43.1,36.9,80,55,31,29.95,29.95,4,0,10,0.00
2013-3-16,59.0,49.2,48.0,49.1,42.2,40.6,71,70,62,29.95,29.95,17,0,19,0.00
2013-3-17,76.0,63.5,55.0,64.5,55.3,47.2,84,68,57,29.95,29.95,10,0,23,0.00
2013-3-18,77.0,66.7,59.0,72.6,64.1,54.6,100,89,78,29.95,29.95,17,1,25,0.00
2013-3-19,82.0,70.3,64.0,73.1,67.3,61.9,100,89,65,29.95,29.95,25,2,27,0.00
2013-3-20,64.0,63.8,62.0,63.6,60.6,52.8,98,87,62,29.95,29.95,18,0,25,0.00
2013-3-21,75.0,63.2,54.0,62.1,53.5,41.6,97,68,28,29.95,29.95,19,2,22,0.00
2013-3-22,78.0,63.2,47.0,71.9,56.1,38.2,86,72,54,29.95,29.95,11,0,16,0.00
2013-3-23,83.0,75.8,68.0,74.0,70.7,64.6,89,81,64,29.95,29.95,20,1,27,0.00
2013-3-24,82.0,74.7,68.0,76.3,72.2,65.1,99,90,79,29.95,29.95,22,4,34,0.00
2013-3-25,75.0,68.9,54.0,74.5,58.5,41.3,98,66,31,29.95,29.95,15,2,21,0.00
2013-3-26,64.0,54.8,47.0,48.6,43.8,38.5,77,59,43,29.95,29.95,27,0,33,0.00
2013-3-27,67.0,51.4,41.0,51.2,40.7,33.7,75,60,36,29.95,29.95,8,0,18,0.00
2013-3-28,73.0,54.6,40.0,54.0,42.8,35.2,83,60,25,29.95,29.95,7,0,13,0.00
2013-3-29,77.0,59.8,46.0,53.1,47.0,40.2,79,57,30,29.95,29.95,7,0,9,0.00
2013-3-30,79.0,63.2,51.0,62.1,53.5,44.4,83,65,44,29.95,29.95,13,0,17,0.00
2013-3-31,81.0,66.6,54.0,67.2,58.7,49.5,84,71,54,29.95,29.95,17,0,23,0.00
2013-4-1,83.0,70.6,60.0,71.5,65.4,56.8,98,81,58,29.95,29.95,13,0,22,0.00
2013-4-2,80.0,68.1,66.0,74.1,65.7,60.4,100,90,76,29.95,29.95,5,0,9,0.00
2013-4-3,87.0,73.3,63.0,74.7,66.7,60.2,93,77,50,29.95,29.95,23,1,29,0.00
2013-4-4,80.0,72.8,65.0,74.3,69.4,62.9,98,87,79,29.95,29.95,27,2,36,0.00
2013-4-5,74.0,67.6,60.0,70.2,64.6,56.3,100,88,68,29.95,29.95,22,4,33,0.00
2013-4-6,66.0,62.2,56.0,60.4,56.8,53.0,93,79,58,29.95,29.95,18,4,21,0.00
2013-4-7,82.0,76.2,69.0,74.1,65.9,60.7,78,65,54,29.95,29.95,4,0,7,0.00
2013-4-8,72.0,64.0,62.0,61.8,59.3,58.3,85,81,58,29.95,29.95,7,0,13,0.00
2013-4-9,85.0,72.2,62.0,70.0,64.5,57.7,91,73,48,29.95,29.95,13,0,17,0.00
2013-4-10,87.0,73.5,64.0,76.3,68.0,61.2,94,80,59,29.95,29.95,15,1,21,0.00
2013-4-11,87.0,76.2,69.0,77.9,71.9,67.1,96,84,64,29.95,29.95,16,2,21,0.00
2013-4-12,87.0,77.6,72.0,76.5,73.2,70.0,98,84,63,29.95,29.95,18,2,22,0.00
2013-4-13,88.0,78.7,72.0,76.6,71.8,66.5,92,76,58,29.95,29.95,18,2,24,0.00
2013-4-14,90.0,77.7,67.0,79.0,72.0,64.4,93,79,63,29.95,29.95,15,1,19,0.00
2013-4-15,91.0,76.9,64.0,77.8,69.9,60.7,88,75,55,29.95,29.95,21,1,29,0.00
2013-4-16,91.0,77.1,68.0,76.6,71.1,66.1,96,79,52,29.95,29.95,12,0,16,0.00
2013-4-17,77.0,71.5,67.0,69.0,66.4,63.9,89,81,61,29.95,29.95,4,0,9,0.00
2013-4-18,91.0,77.4,71.0,78.6,70.8,64.9,95,76,52,29.95,29.95,15,1,21,0.00
2013-4-19,89.0,76.6,68.0,77.3,71.4,66.1,98,82,60,29.95,29.95,17,2,24,0.00
2013-4-20,88.0,76.5,68.0,77.3,71.6,66.1,95,82,61,29.95,29.95,19,3,23,0.00
2013-4-21,87.0,72.2,62.0,74.9,68.1,60.2,98,85,59,29.95,29.95,19,2,23,0.00
2013-4-22,85.0,72.7,66.0,75.2,68.9,64.6,97,85,67,29.95,29.95,9,0,12,0.00
2013-4-23,86.0,73.3,66.0,71.9,66.9,60.4,93,77,55,29.95,29.95,12,0,14,0.00
2013-4-24,88.0,72.7,60.0,73.2,64.7,57.0,90,72,44,29.95,29.95,2,0,5,0.00
2013-4-25,87.0,74.3,63.0,69.3,64.9,59.0,89,68,43,29.95,29.95,0,0,0,0.00
2013-4-26,87.0,73.5,61.0,71.0,64.1,56.3,86,67,52,29.95,29.95,8,0,12,0.00
2013-4-27,87.0,74.2,64.0,69.3,64.8,59.8,91,68,47,29.95,29.95,10,0,11,0.00
2013-4-28,89.0,74.7,63.0,71.7,65.1,58.7,84,67,47,29.95,29.95,6,0,12,0.00
2013-4-29,88.0,73.2,64.0,73.6,65.9,58.1,85,74,55,29.95,29.95,18,0,25,0.00
2013-4-30,87.0,73.4,66.0,76.0,69.5,63.4,95,85,63,29.95,29.95,14,0,19,0.00
2013-5-1,79.0,69.7,67.0,75.7,68.4,64.9,100,95,87,29.95,29.95,1,0,2,0.00
2013-5-2,69.0,67.2,67.0,69.0,67.2,65.4,100,100,100,29.95,29.95,0,0,0,0.00
2013-5-4,80.0,73.1,69.0,74.1,68.3,64.6,100,82,76,29.95,29.77,1,0,2,0.00
2013-5-5,82.6,71.2,66.6,66.9,59.0,48.9,91,66,31,29.98,29.81,7,1,4,0.00
2013-5-6,81.5,71.6,60.3,65.4,60.3,56.1,95,69,50,29.99,29.91,9,2,0,0.00
2013-5-7,80.8,69.0,57.2,61.9,59.2,55.4,96,73,50,30.02,29.95,9,2,0,0.00
2013-5-8,83.3,70.0,59.2,63.3,60.3,55.4,99,75,42,30.06,29.98,5,1,0,0.00
2013-5-9,92.1,74.4,60.8,65.8,61.0,55.7,99,68,33,30.05,29.95,5,2,0,0.00
2013-5-10,91.4,78.0,64.4,72.6,68.3,63.5,97,74,49,30.02,29.87,7,2,0,0.00
2013-5-11,90.9,79.3,68.7,74.9,71.4,67.8,98,79,48,29.94,29.86,8,2,0,0.00
2013-5-12,89.2,79.8,72.0,75.8,73.1,68.8,99,82,59,29.93,29.81,8,2,0,0.00
2013-5-13,88.3,77.8,68.5,73.1,67.0,53.1,96,72,46,30.01,29.89,9,3,0,0.00
2013-5-14,89.6,73.6,60.3,58.8,55.9,52.5,88,57,30,30.06,29.97,6,2,0,0.00
2013-5-15,87.6,74.0,60.4,62.2,59.1,56.8,92,63,38,30.06,29.94,6,2,0,0.00
2013-5-16,91.2,75.9,63.0,63.4,60.7,55.5,94,63,34,29.98,29.86,4,2,0,0.00
2013-5-17,93.0,78.5,64.9,69.4,64.2,60.9,95,65,36,29.95,29.88,7,1,0,0.00
2013-5-18,93.4,81.9,68.5,71.3,67.2,64.4,99,63,41,29.97,29.86,6,2,0,0.00
2013-5-19,92.7,77.6,70.5,72.4,69.8,66.0,99,79,46,29.96,29.84,6,1,0,0.98
2013-5-20,92.8,74.7,69.3,73.7,69.9,66.4,99,87,45,29.94,29.83,9,1,0,0.05
2013-5-21,92.5,75.4,67.8,73.0,69.6,67.2,99,85,46,29.88,29.75,5,2,0,0.08
2013-5-22,90.9,77.4,67.8,75.3,70.3,66.9,99,81,54,29.83,29.75,7,1,0,0.00
2013-5-23,91.8,80.0,69.1,74.1,70.7,67.2,99,76,49,29.90,29.79,7,2,0,0.00
2013-5-24,96.8,81.1,72.0,73.5,69.8,62.7,98,72,39,29.97,29.85,7,2,0,0.00
2013-5-25,90.9,79.1,68.2,72.5,67.1,63.1,97,69,43,30.04,29.92,6,2,0,0.00
2013-5-26,89.8,77.2,65.8,65.8,63.1,57.5,91,65,34,30.07,29.97,7,3,0,0.00
2013-5-27,90.5,77.2,65.8,70.3,66.6,62.8,94,72,42,30.05,29.90,7,2,0,0.00
2013-5-28,87.4,77.8,71.4,73.6,71.2,69.6,97,81,57,29.99,29.88,7,2,0,0.01
2013-5-29,87.8,77.2,70.9,72.3,70.9,68.9,98,83,58,29.96,29.88,7,3,0,0.08
2013-5-30,86.9,77.6,71.1,75.0,71.6,69.6,97,83,64,29.93,29.84,10,4,0,0.05
2013-5-31,88.0,79.0,72.3,74.3,72.1,69.8,97,81,61,29.92,29.86,8,3,0,0.00
2013-6-1,89.6,77.3,73.0,76.7,73.7,71.6,99,90,61,29.91,29.83,4,2,0,0.60
2013-6-2,91.8,79.9,71.2,76.2,73.3,70.9,99,82,53,29.88,29.79,6,2,0,0.00
2013-6-3,88.0,78.4,73.4,75.6,73.6,71.8,97,86,67,29.90,29.79,5,1,0,0.00
2013-6-4,83.7,77.1,72.0,76.2,73.5,70.5,97,89,75,29.92,29.83,3,1,0,0.09
2013-6-5,80.1,76.8,75.0,76.2,74.9,73.5,99,94,84,29.89,29.75,5,2,0,0.26
2013-6-6,80.8,75.0,71.1,78.2,73.6,69.7,99,95,85,29.76,29.64,9,3,0,2.00
2013-6-7,86.9,78.8,73.9,77.3,73.8,70.7,99,86,62,29.88,29.70,5,1,0,0.00
2013-6-8,93.4,80.8,74.5,77.8,74.5,71.3,98,82,58,30.00,29.85,7,2,0,0.00
2013-6-9,94.8,82.4,73.9,76.2,73.9,70.7,99,78,47,30.00,29.90,6,2,0,0.00
2013-6-10,95.0,81.6,74.3,76.7,74.2,70.5,98,80,50,29.98,29.89,6,1,0,0.00
2013-6-11,96.6,80.9,72.5,78.5,74.5,69.1,98,83,49,29.98,29.87,7,2,0,0.14
2013-6-12,96.4,78.4,72.3,77.5,73.1,69.7,99,86,48,29.98,29.90,7,1,0,0.08
2013-6-13,94.1,77.8,69.4,76.4,72.4,68.8,99,86,51,29.95,29.83,8,1,0,0.98
2013-6-14,91.8,81.4,72.9,76.8,73.4,70.8,99,79,55,29.87,29.78,8,2,0,0.00
2013-6-15,95.5,83.2,73.4,77.3,73.9,71.9,96,75,51,29.94,29.83,6,2,0,0.00
2013-6-16,95.2,83.2,74.7,76.9,74.8,72.2,96,77,53,30.00,29.91,5,1,0,0.76
2013-6-17,99.3,83.5,73.9,77.9,74.1,67.6,98,77,36,29.97,29.87,4,1,0,0.02
2013-6-18,94.6,83.7,73.9,77.9,74.9,70.1,98,77,48,29.96,29.85,6,1,0,0.46
2013-6-19,94.3,80.2,73.6,78.3,73.7,69.6,99,82,53,29.95,29.87,6,1,0,0.48
2013-6-20,91.9,78.5,72.1,76.5,72.7,69.8,96,83,58,29.99,29.91,5,1,0,0.00
2013-6-21,91.6,78.8,71.2,75.7,72.0,68.9,97,81,54,30.01,29.92,8,1,0,0.04
2013-6-22,96.8,82.9,71.4,75.0,71.4,66.4,98,72,41,30.01,29.90,4,1,0,0.00
2013-6-23,91.6,79.4,74.1,75.9,73.5,70.9,95,83,54,30.02,29.95,5,1,0,0.28
2013-6-24,92.5,82.3,73.2,75.5,73.1,71.1,97,76,52,30.06,29.95,6,2,0,0.00
2013-6-25,97.0,83.6,77.0,75.0,72.0,70.7,89,70,43,29.96,29.89,4,1,0,0.00
2013-6-26,91.8,77.8,72.5,76.9,73.1,70.1,96,87,58,29.97,29.90,6,1,0,0.26
2013-6-27,94.3,78.2,71.1,76.9,72.7,70.5,99,85,52,29.95,29.86,6,1,0,0.05
2013-6-28,93.0,81.3,72.3,76.2,73.6,70.8,98,79,57,29.89,29.76,8,2,0,0.00
2013-6-29,92.8,82.5,74.3,77.7,74.0,71.8,95,77,57,29.81,29.72,12,2,0,0.02
2013-6-30,90.7,80.2,74.1,77.9,74.6,72.5,96,84,61,29.81,29.73,9,2,0,1.06
2013-7-1,87.6,74.9,70.5,78.3,72.7,69.5,98,93,65,29.91,29.79,8,2,0,3.45
2013-7-2,88.0,76.1,72.3,79.1,73.8,70.5,99,93,72,29.99,29.86,3,1,0,1.96
2013-7-3,79.5,74.8,72.3,76.1,73.0,71.0,99,94,86,30.02,29.94,6,1,0,0.07
2013-7-4,90.9,78.9,71.4,77.9,73.6,70.8,99,85,61,30.02,29.95,5,2,0,0.06
2013-7-8,84.2,74.8,77.9,73.3,61.7,-99.9,82,74,71,30.05,29.97,2,-62,0,0.01
2013-7-9,90.5,79.8,72.7,75.3,72.4,69.7,96,79,59,30.05,29.95,5,1,0,0.41
2013-7-10,89.8,77.9,72.1,75.5,72.7,70.4,97,85,59,29.99,29.88,5,1,0,0.35
2013-7-11,91.0,79.2,72.5,76.9,73.5,71.2,97,84,60,29.94,29.83,5,1,0,0.83
2013-7-12,91.9,79.4,72.3,76.8,73.2,70.2,97,83,60,29.87,29.79,6,1,0,0.41
2013-7-13,88.2,75.9,72.0,76.7,72.8,70.1,97,91,65,29.97,29.81,4,1,2,2.40
2013-7-14,82.8,75.9,72.1,75.1,72.7,70.4,98,90,76,29.99,29.86,5,1,0,0.12
2013-7-15,86.7,78.0,71.1,75.3,72.9,70.2,98,85,67,29.99,29.94,4,2,0,0.04
2013-7-16,77.0,73.3,72.9,72.8,72.1,70.4,98,96,81,30.02,29.94,4,1,0,0.00
2013-7-17,83.3,75.9,74.3,73.7,70.9,70.2,89,85,69,30.02,29.94,4,0,0,0.00
2013-7-18,85.3,74.9,70.7,75.2,71.8,69.5,98,91,72,30.02,29.95,3,1,0,1.06
2013-7-19,74.3,71.8,69.8,73.4,71.1,69.2,99,97,94,30.04,29.96,3,1,0,0.32
2013-7-20,91.8,76.6,73.2,79.3,73.2,70.4,97,90,63,30.01,29.93,3,0,0,0.00
2013-7-21,91.6,80.4,73.2,79.5,75.0,71.4,98,85,63,30.04,29.94,4,1,0,0.04
2013-7-22,93.7,82.6,74.1,78.5,74.8,71.5,96,79,58,30.04,29.96,6,1,0,0.00
2013-7-23,93.9,83.2,75.7,77.7,75.1,73.4,96,78,56,30.01,29.88,6,2,0,0.00
2013-7-24,91.0,82.6,74.5,75.1,73.2,71.2,92,74,54,29.93,29.83,7,2,0,0.00
2013-7-25,90.0,83.3,78.1,77.2,74.5,72.5,85,75,64,29.92,29.81,8,3,0,0.00
2013-7-27,90.5,86.9,81.0,79.2,75.6,72.3,75,69,63,29.86,29.82,4,2,0,0.00
2013-7-28,86.2,80.9,77.4,73.8,71.6,70.4,80,74,65,29.96,29.93,4,1,0,0.00
2013-7-29,96.6,80.8,73.8,76.8,73.3,70.7,96,80,49,30.04,29.92,5,1,0,0.07
2013-7-30,91.8,80.1,73.8,79.0,75.1,71.8,98,86,61,30.06,29.97,4,1,0,0.19
2013-7-31,94.1,80.4,74.8,78.2,74.7,71.3,98,84,58,30.02,29.90,6,1,0,0.02
2013-8-1,96.6,77.3,73.9,73.7,71.5,68.6,95,83,48,29.95,29.82,12,1,0,0.00
2013-8-2,95.0,80.7,73.2,77.0,73.4,70.5,95,80,51,29.96,29.83,6,1,0,0.64
2013-8-3,88.9,78.1,73.6,79.4,75.5,71.4,98,92,70,30.01,29.91,9,0,0,2.47
2013-8-4,95.4,82.6,75.4,79.6,76.3,74.8,99,83,57,30.00,29.91,6,2,0,0.00
2013-8-5,93.2,83.6,77.2,79.1,76.0,71.6,92,79,59,29.95,29.83,6,2,0,0.19
2013-8-6,94.1,81.7,75.7,79.5,75.3,72.8,95,82,61,29.88,29.80,8,1,0,0.11
2013-8-7,95.2,80.4,74.8,78.7,75.2,73.3,96,85,56,29.86,29.79,6,1,0,0.94
2013-8-8,95.2,80.5,74.8,77.7,74.9,72.7,98,85,52,29.91,29.81,7,1,0,0.26
2013-8-9,92.8,78.1,72.9,76.2,73.8,71.6,97,88,56,29.95,29.85,8,1,0,4.52
2013-8-10,96.6,82.5,72.5,78.0,73.8,71.4,98,78,47,30.01,29.91,5,2,0,0.00
2013-8-11,97.5,84.6,75.6,77.5,74.4,71.2,94,74,46,30.03,29.93,5,1,0,0.00
2013-8-12,94.6,83.7,73.6,75.5,72.3,69.7,95,71,46,30.02,29.89,4,1,0,0.00
2013-8-13,97.0,81.6,73.4,78.0,73.9,69.3,93,79,49,29.95,29.82,6,1,0,0.14
2013-8-14,90.0,82.9,74.1,76.4,74.7,72.3,96,78,64,29.92,29.85,3,1,0,0.00
2013-8-15,89.8,89.8,89.8,75.9,75.9,75.9,64,64,64,29.89,29.89,1,1,0,0.00
2013-8-23,93.2,79.3,73.9,79.3,75.3,73.3,99,89,58,29.91,29.83,3,1,0,0.71
2013-8-24,94.8,81.1,74.1,78.9,75.0,73.2,99,84,51,30.03,29.88,5,1,0,0.86
2013-8-25,90.3,78.9,73.9,77.4,75.0,73.3,99,89,66,30.04,29.92,4,2,0,0.06
2013-8-30,92.7,80.9,74.1,75.8,73.4,69.8,95,79,58,29.96,29.80,9,1,0,0.00
2013-8-31,94.1,80.9,72.5,76.2,72.2,69.8,95,77,54,29.88,29.80,6,1,0,0.00
2013-9-1,90.9,77.7,72.0,77.6,73.1,70.3,97,87,62,29.89,29.82,8,1,0,4.22
2013-9-2,90.5,76.9,72.1,79.3,73.6,71.4,99,90,65,29.94,29.83,6,0,0,0.05
2013-9-3,90.9,79.3,72.1,76.8,73.7,71.2,98,84,60,29.93,29.83,6,1,0,0.02
2013-9-4,93.6,78.3,74.7,77.4,74.3,71.9,97,88,56,29.97,29.85,4,1,0,0.25
2013-9-5,96.1,82.4,74.3,79.8,75.2,72.8,99,81,51,29.98,29.88,4,1,0,0.00
2013-9-6,97.3,83.0,73.9,78.1,74.3,70.7,93,77,46,29.95,29.80,4,1,0,0.33
2013-9-7,94.8,77.7,72.0,77.0,73.5,71.0,98,88,52,29.90,29.80,5,1,0,2.46
2013-9-8,92.3,79.3,71.1,76.7,72.8,70.8,99,83,51,29.85,29.74,5,1,0,0.00
2013-9-9,91.9,81.5,74.3,75.5,73.0,70.6,97,77,51,29.90,29.80,5,1,0,0.00
2013-9-10,92.5,80.4,73.9,75.5,72.7,69.4,95,78,56,29.94,29.86,6,2,0,0.21
2013-9-11,90.0,79.9,73.8,76.0,73.3,71.5,94,81,60,29.94,29.87,5,2,0,0.01
2013-9-12,92.8,79.0,73.0,76.7,73.6,71.2,98,85,54,29.92,29.77,6,1,0,2.04
2013-9-13,91.6,79.6,71.1,76.5,72.7,70.8,99,82,52,29.81,29.70,4,1,0,0.00
2013-9-14,94.1,81.7,73.4,76.1,73.1,69.1,97,78,48,29.87,29.73,6,2,0,0.26
2013-9-15,92.1,79.2,74.8,78.3,74.0,69.3,98,85,54,29.96,29.83,6,1,0,0.00
2013-9-16,86.9,75.4,72.9,78.0,73.2,70.1,99,93,75,29.95,29.86,6,2,0,1.53
2013-9-17,88.9,76.3,72.7,77.4,73.4,71.1,99,91,69,29.92,29.82,9,2,0,0.05
2013-9-18,91.0,76.8,73.0,77.1,73.6,71.7,99,91,63,29.91,29.83,4,1,0,1.01
2013-9-19,88.9,78.7,71.6,77.3,73.8,71.0,99,86,68,29.92,29.84,5,2,0,0.00
2013-9-20,91.2,79.5,72.1,73.2,70.8,66.4,97,77,52,29.91,29.78,5,2,0,0.00
2013-9-21,91.6,77.6,69.8,72.7,69.9,66.7,97,79,45,29.84,29.68,5,1,0,0.00
2013-9-22,92.7,81.6,73.0,75.8,72.8,70.0,95,76,53,29.76,29.66,6,1,0,0.00
2013-9-23,82.6,77.0,74.1,78.6,75.4,73.0,99,95,86,29.88,29.73,11,1,0,6.08
2013-9-24,83.3,75.0,72.0,81.5,74.2,70.8,99,97,83,29.86,29.79,8,1,0,1.39
2013-9-25,81.0,74.5,71.1,76.0,72.7,70.0,99,94,84,29.84,29.71,7,1,0,0.14
2013-9-26,89.4,82.3,73.2,80.4,76.4,72.5,99,84,63,29.77,29.70,10,3,0,0.24
2013-9-27,90.9,79.0,72.1,73.3,70.6,67.4,94,77,47,29.84,29.74,7,2,0,0.00
2013-9-28,90.7,78.6,71.4,73.7,70.3,67.7,95,77,53,29.88,29.79,5,2,0,0.00
2013-9-29,92.7,79.1,70.7,71.3,69.1,64.8,95,74,47,29.87,29.77,5,2,0,0.00
2013-9-30,75.0,72.2,70.5,72.3,69.6,68.6,97,92,84,29.86,29.80,3,0,0,0.00
2013-10-4,88.9,80.8,76.1,70.8,68.9,67.6,78,68,53,29.95,29.87,4,1,0,0.00
2013-10-5,90.3,79.7,71.6,72.6,69.7,67.2,94,73,48,29.95,29.82,5,1,0,0.00
2013-10-6,90.7,79.4,70.7,74.6,70.6,67.3,97,76,54,29.87,29.76,5,1,0,0.00
2013-10-7,87.3,78.2,72.9,78.0,72.9,68.3,95,84,68,29.78,29.69,7,2,0,0.87
2013-10-8,89.2,79.4,72.9,73.6,70.9,67.5,93,76,56,29.83,29.73,6,2,0,0.00
2013-10-9,87.3,77.9,72.7,74.0,70.6,67.7,92,79,61,29.91,29.81,6,2,0,0.00
2013-10-10,88.3,77.0,67.8,72.6,68.1,65.6,94,76,53,29.94,29.84,5,2,0,0.00
2013-10-11,90.0,76.0,66.0,69.1,65.2,60.7,97,73,38,29.93,29.83,5,1,0,0.00
2013-10-12,88.5,76.1,66.7,69.3,66.0,62.9,95,73,47,29.94,29.86,6,1,0,0.00
2013-10-13,88.5,77.1,68.2,70.7,65.1,60.7,95,68,45,29.96,29.86,5,1,0,0.06
2013-10-14,88.7,76.9,67.1,67.7,65.1,62.8,91,69,44,29.94,29.81,6,1,0,0.00
2013-10-15,89.2,77.3,68.0,69.8,66.1,62.3,94,71,41,29.88,29.77,5,2,0,0.00
2013-10-16,90.3,76.8,68.4,73.1,68.5,66.0,98,78,47,29.86,29.78,5,2,0,0.00
2013-10-17,90.9,78.5,68.7,71.6,68.6,66.3,97,74,49,29.88,29.78,6,1,0,0.00
2013-10-18,93.6,80.2,70.5,72.7,69.8,66.7,96,73,43,29.89,29.78,4,1,0,0.00
2013-10-19,90.0,80.8,73.0,75.3,72.0,68.6,88,75,60,29.86,29.75,6,2,0,0.00
2013-10-20,91.6,81.2,73.9,76.7,72.9,70.2,98,78,52,29.85,29.77,7,1,0,0.00
2013-10-21,91.9,80.5,72.9,75.6,72.6,70.4,96,78,56,29.89,29.80,6,2,0,0.00
2013-10-22,91.0,80.3,73.0,77.0,72.8,69.8,97,79,55,29.86,29.73,7,2,0,0.01
2013-10-23,84.4,76.4,68.0,73.7,68.2,56.6,93,77,57,29.89,29.71,7,2,0,0.17
2013-10-24,76.5,69.4,65.3,62.6,57.8,52.1,78,67,57,30.04,29.88,5,2,0,0.00
2013-10-25,78.6,68.4,61.0,63.5,59.4,56.3,85,74,50,30.10,30.02,5,2,0,0.00
2013-10-26,85.1,71.1,62.6,63.0,57.9,54.0,78,66,36,30.09,29.96,5,2,0,0.00
2013-10-27,84.4,71.3,61.0,60.4,56.3,55.3,88,63,39,30.01,29.93,4,1,0,0.00
2013-10-28,80.6,80.6,80.6,55.4,55.4,55.4,42,42,42,30.00,29.97,2,2,0,0.00
2013-10-31,80.6,74.1,72.5,67.6,66.0,55.4,83,77,42,29.98,29.91,2,0,0,0.00
2013-11-1,88.3,74.8,67.3,73.3,67.6,63.6,97,80,51,29.91,29.81,6,1,0,0.00
2013-11-2,84.9,73.9,68.5,75.0,67.6,61.2,99,81,64,29.87,29.73,8,2,0,0.00
2013-11-3,81.1,72.7,61.9,61.4,52.9,45.2,87,54,29,29.97,29.84,6,3,0,0.00
2013-11-4,80.4,76.1,67.6,62.6,55.2,47.4,77,50,35,30.01,29.93,10,5,0,0.00
2013-11-5,84.0,74.4,66.2,69.0,65.2,61.1,87,74,60,29.99,29.91,8,4,0,0.00
2013-11-6,87.1,77.1,69.3,68.9,66.5,63.9,85,71,53,29.97,29.87,7,3,0,0.00
2013-11-7,84.0,72.5,66.4,69.8,65.7,63.5,96,80,57,29.94,29.84,8,1,0,0.00
2013-11-8,83.5,75.1,66.0,70.1,65.5,62.8,91,73,57,29.97,29.88,7,3,0,0.00
2013-11-9,81.9,73.1,66.9,70.2,66.0,61.8,86,79,68,30.02,29.94,11,3,0,0.00
2013-11-10,86.0,75.4,68.0,70.8,66.4,63.9,90,75,54,30.03,29.94,5,2,0,0.00
2013-11-11,86.9,76.5,66.7,69.2,64.9,62.0,94,69,44,30.03,29.93,7,3,0,0.00
2013-11-12,84.4,80.3,74.5,68.2,65.8,64.6,80,62,55,30.00,29.88,4,2,0,0.00
2013-11-17,82.0,61.5,82.0,66.3,24.8,-99.9,59,44,59,29.95,29.95,6,-247,0,0.00
2013-11-23,86.0,75.1,69.8,69.8,62.4,-99.9,82,69,55,29.95,29.87,3,-26,0,0.00
2013-11-24,78.8,69.0,63.1,67.3,63.1,58.2,94,82,65,30.04,29.91,7,2,0,0.00
2013-11-25,70.9,67.0,63.1,63.1,60.0,11.3,85,79,11,30.03,29.88,7,4,0,0.00
2013-11-26,85.6,75.2,67.8,73.1,69.5,63.1,98,83,62,29.87,29.68,7,3,0,0.27
2013-11-27,72.3,67.8,52.0,68.9,59.6,45.7,94,75,69,30.07,29.69,11,6,0,0.00
2013-11-28,66.9,54.8,40.1,52.5,45.2,35.7,85,71,55,30.17,30.05,7,2,0,0.00
2013-11-29,78.3,63.4,53.8,59.4,54.0,49.4,85,73,52,30.14,30.03,8,3,0,0.09
2013-11-30,78.3,65.4,55.9,66.3,59.6,51.4,97,82,64,30.09,29.95,7,3,0,0.00
2013-12-1,78.4,66.9,61.0,67.0,63.3,58.9,99,89,68,29.97,29.80,5,2,0,0.00
2013-12-2,75.0,66.2,59.4,65.3,62.2,58.8,99,88,63,29.79,29.67,5,2,0,0.00
2013-12-3,80.6,69.6,63.5,65.8,62.5,60.8,92,79,58,29.83,29.74,7,1,0,0.00
2013-12-4,83.3,70.7,60.6,69.3,63.8,59.2,99,81,54,29.94,29.83,5,1,0,0.00
2013-12-5,85.1,72.2,62.2,70.1,65.1,61.5,99,80,53,30.01,29.92,5,1,0,0.00
2013-12-6,86.5,73.2,64.8,72.5,67.0,61.8,99,83,55,30.03,29.92,6,1,0,0.00
2013-12-7,86.7,72.1,61.3,69.9,64.5,60.8,99,79,50,30.07,29.97,6,1,0,0.00
2013-12-8,87.6,73.6,65.3,70.1,65.5,62.8,99,78,50,30.04,29.92,5,1,0,0.00
2013-12-9,86.5,73.5,65.3,71.4,65.7,61.6,98,79,50,30.01,29.91,5,1,0,0.00
2013-12-10,84.7,72.3,62.4,71.4,66.0,60.0,99,82,57,30.00,29.91,5,1,0,0.00
2013-12-11,87.8,73.6,65.3,70.7,66.6,63.7,99,81,53,30.05,29.95,5,1,0,0.00
2013-12-12,73.0,66.7,56.1,67.5,60.0,42.1,99,81,48,30.09,29.98,7,3,0,0.00
2013-12-13,80.4,65.0,52.5,61.7,54.0,43.9,83,69,53,30.06,29.91,7,3,0,0.00
2013-12-14,86.0,77.5,65.3,71.4,68.6,64.7,98,75,57,29.91,29.78,9,2,0,0.00
2013-12-15,78.6,73.4,66.4,74.4,69.7,60.0,98,89,78,29.93,29.74,6,3,0,0.25
2013-12-16,71.2,62.4,53.6,59.5,53.7,48.2,86,74,51,30.03,29.91,6,3,0,0.00
2013-12-17,78.3,61.3,48.2,60.7,51.9,43.0,86,72,48,30.05,29.94,6,2,0,0.00
2013-12-18,75.9,60.2,51.1,52.6,45.8,40.2,89,63,29,30.11,30.00,6,2,0,0.00
2013-12-19,79.5,63.5,50.4,58.5,52.7,45.7,85,70,46,30.07,29.95,7,2,0,0.00
2013-12-20,84.2,71.0,59.7,69.1,62.6,55.4,94,76,59,29.99,29.89,5,2,0,0.00
2013-12-21,86.5,74.7,67.1,71.7,66.8,62.5,96,78,55,29.95,29.83,6,2,0,0.00
2013-12-22,86.2,76.0,67.6,72.7,68.7,64.0,98,79,61,29.96,29.88,7,2,0,0.00
2013-12-23,86.4,75.0,68.0,73.7,69.3,65.9,99,84,56,29.98,29.91,6,2,0,0.00
2013-12-24,73.2,67.1,55.4,70.4,61.4,42.2,99,83,49,30.03,29.93,8,3,0,0.00
2013-12-25,77.7,65.2,54.7,63.2,55.1,43.5,77,70,61,30.01,29.90,7,2,0,0.00
2013-12-26,81.3,70.3,61.3,67.0,61.4,54.4,82,74,59,29.99,29.87,4,2,0,0.00
2013-12-27,82.0,71.4,63.3,69.1,63.8,59.1,89,78,62,30.02,29.89,7,2,0,0.00
2013-12-28,83.7,73.1,65.8,71.1,67.3,62.9,97,83,64,29.99,29.82,6,2,0,0.00
2013-12-29,79.3,73.7,68.0,75.2,69.9,63.0,97,88,79,29.83,29.73,8,3,0,0.24
2013-12-30,73.8,66.8,62.4,64.2,61.3,58.5,87,83,72,29.98,29.81,7,3,0,0.00
2013-12-31,74.1,66.4,61.5,58.7,55.1,47.1,87,69,44,30.08,29.94,8,3,0,0.00
2014-1-1,83.3,70.5,61.5,70.2,63.5,54.4,97,79,62,30.01,29.85,5,2,0,0.08
2014-1-2,82.6,72.5,66.0,72.6,68.6,65.7,99,88,69,29.85,29.69,12,3,0,0.20